#timestamp,LO_Frequency,Hit,StdDev 
1619456415.9,286047002.0,N
1619456435.7,286047000.0,N
1619456455.6,286046999.2,N
1619456475.4,286046996.8,N
1619456495.2,286046996.5,N
1619456515.1,286047000.9,N
1619456516.0,286047000.9,N
1619456535.8,286047000.0,N
1619456555.6,286047000.4,N
1619456575.5,286046998.4,N
1619456595.3,286047001.5,N
1619456615.2,286047001.3,N
1619456635.9,286047000.4,N
1619456655.7,286047000.6,N
1619456675.6,286046999.8,N
1619456695.4,286047004.4,N
1619456715.2,286047004.0,N
1619456735.1,286047003.1,N
1619456736.0,286047003.1,N
1619456755.8,286047003.3,N
1619456775.7,286047003.4,N
1619456795.5,286047001.8,N
1619456815.3,286047001.3,N
1619456835.2,286047000.8,N
1619456855.0,286046998.3,N
1619456855.9,286046998.3,N
1619456875.7,286047001.2,N
1619456895.6,286046999.1,N
1619456915.4,286046998.9,N
1619456935.3,286046999.2,N
1619456955.1,286046997.0,N
1619456956.0,286046997.0,N
1619456975.8,286046999.1,N
1619456995.7,286047000.9,N
1619457015.5,286046999.8,N
1619457035.3,286047000.0,N
1619457055.2,286047000.2,N
1619457075.0,286047001.3,N
1619457075.9,286047001.3,N
1619457095.8,286047003.8,N
1619457115.6,286047001.2,N
1619457135.4,286047000.3,N
1619457155.3,286047001.2,N
1619457175.1,286046998.3,N
1619457195.8,286047000.8,N
1619457215.7,286047001.8,N
1619457235.5,286046999.8,N
1619457255.4,286046998.8,N
1619457275.2,286046999.5,N
1619457295.0,286046997.0,N
1619457295.9,286046997.0,N
1619457315.8,286046996.6,N
1619457335.6,286046999.1,N
1619457355.4,286046997.3,N
1619457375.3,286047000.1,N
1619457395.1,286046998.5,N
1619457415.9,286047000.8,N
1619457435.7,286047000.9,N
1619457455.5,286046998.7,N
1619457475.4,286046996.8,N
1619457495.2,286046997.1,N
1619457515.0,286047001.1,N
1619457515.9,286047001.1,N
1619457535.8,286047002.6,N
1619457555.6,286046998.5,N
1619457575.5,286047001.0,N
1619457595.3,286047000.0,N
1619457615.2,286047001.1,N
1619457635.9,286046999.6,N
1619457655.7,286046999.4,N
1619457675.6,286046999.4,N
1619457695.4,286047004.0,N
1619457715.3,286047002.3,N
1619457735.1,286047000.2,N
1619457736.0,286047000.2,N
1619457755.8,286047001.0,N
1619457775.7,286047002.1,N
1619457795.5,286047003.5,N
1619457815.3,286047003.7,N
1619457835.2,286047002.8,N
1619457855.0,286046998.4,N
1619457855.9,286046998.4,N
1619457875.8,286047002.7,N
1619457895.6,286047003.9,N
1619457915.4,286047001.8,N
1619457935.3,286047000.1,N
1619457955.1,286046998.7,N
1619457975.9,286046998.4,N
1619457995.7,286046999.5,N
1619458015.5,286046999.5,N
1619458035.4,286046999.0,N
1619458055.2,286046997.0,N
1619458075.0,286047000.2,N
1619458075.9,286047000.2,N
1619458095.8,286047002.1,N
1619458115.6,286047001.2,N
1619458135.5,286046999.3,N
1619458155.3,286046997.0,N
1619458175.1,286046999.4,N
1619458195.9,286047000.1,N
1619458215.7,286046998.5,N
1619458235.5,286047000.7,N
1619458255.4,286046996.8,N
1619458275.2,286046999.6,N
1619458295.1,286046996.9,N
1619458296.0,286046996.9,N
1619458315.8,286046997.1,N
1619458335.6,286047000.7,N
1619458355.5,286046999.8,N
1619458375.3,286047003.6,N
1619458395.1,286047004.8,N
1619458415.9,286047004.6,N
1619458435.7,286047006.0,N
1619458455.6,286047006.0,N
1619458475.4,286047001.6,N
1619458495.2,286046999.7,N
1619458515.1,286047001.0,N
1619458516.0,286047001.0,N
1619458535.8,286047001.0,N
1619458555.6,286046999.0,N
1619458575.5,286046998.8,N
1619458595.3,286046996.9,N
1619458615.2,286046997.7,N
1619458635.9,286046997.2,N
1619458655.7,286047000.7,N
1619458675.6,286047001.9,N
1619458695.4,286047002.2,N
1619458715.2,286047001.7,N
1619458735.1,286047002.7,N
1619458736.0,286047002.7,N
1619458755.8,286047001.2,N
1619458775.7,286046999.2,N
1619458795.5,286046998.1,N
1619458815.3,286047001.7,N
1619458835.2,286047000.4,N
1619458855.0,286047001.2,N
1619458855.9,286047001.2,N
1619458875.8,286047000.5,N
1619458895.6,286046998.2,N
1619458915.4,286046998.6,N
1619458935.3,286047002.3,N
1619458955.1,286047005.3,N
1619458975.8,286047003.5,N
1619458995.7,286047002.1,N
1619459015.5,286047002.5,N
1619459035.4,286047000.2,N
1619459055.2,286047000.2,N
1619459075.0,286047000.5,N
1619459075.9,286047000.5,N
1619459095.8,286046999.8,N
1619459115.6,286047000.4,N
1619459135.4,286047000.2,N
1619459155.3,286046998.2,N
1619459175.1,286046999.2,N
1619459195.9,286046999.5,N
1619459215.7,286046998.7,N
1619459235.5,286046999.2,N
1619459255.4,286047001.4,N
1619459275.2,286047005.3,Y
1619459295.0,286047003.8,P
1619459296.0,286047003.8,N
1619459315.8,286047004.4,N
1619459335.6,286047002.2,N
1619459355.5,286047000.9,N
1619459375.3,286047000.3,N
1619459395.1,286046998.3,N
1619459415.9,286047001.1,N
1619459435.7,286046998.9,N
1619459455.5,286046998.7,N
1619459475.4,286046997.3,N
1619459495.2,286046999.5,N
1619459515.1,286046998.2,N
1619459516.0,286046998.2,N
1619459535.8,286046998.4,N
1619459555.6,286046998.2,N
1619459575.5,286047002.8,N
1619459595.3,286047004.3,N
1619459615.1,286047004.3,N
1619459635.9,286047001.9,N
1619459655.7,286047000.5,N
1619459675.6,286047001.0,N
1619459695.4,286047001.0,N
1619459715.2,286046999.7,N
1619459735.1,286047001.0,N
1619459736.0,286047001.0,N
1619459755.8,286046998.4,N
1619459775.6,286046998.4,N
1619459795.5,286046999.6,N
1619459815.3,286047001.1,N
1619459835.2,286046998.9,N
1619459855.9,286046996.7,N
1619459875.7,286046995.4,N
1619459895.6,286046995.2,N
1619459915.4,286046997.4,N
1619459935.2,286046997.9,N
1619459955.1,286046999.2,N
1619459956.0,286046999.2,N
1619459975.8,286047002.7,N
1619459995.7,286046998.6,N
